[[{"header":{"parameterUnit":"m.s-1","parameterCategory":2,"la1":30.2991,"la2":30.254,"lo1":-89.0895,"lo2":-89.0444,"dy":0.0017,"dx":0.0017,"nx":28,"ny":28,"refTime":"2025-09-14T21:00:00:Z","depth":"0","parameterNumber":2,"parameterNumberName":"U-component_of_CURRENTS"},"data":[0,0,0,0,0,0,0,0,0,0,0,0,0,0,0,0,0,0,0,0,0,0,0,0,0,0,0,0,0,0,0,0,0,0,0,0,0,0,0,0,0,0,0,0,0,0,0,0,0,0,0,0,0,0,0,0,0,0,0.3364,0.3364,0,0.3318,0.3317,0.3316,0.3291,0.3291,0.3291,0.3292,0.3323,0.3324,0.3324,0,0,0,0,0,0,0,0,0,0,0,0,0,0.3317,0.3318,0.3364,0.3364,0.3364,0.3318,0.3317,0.3316,0.329,0.3291,0.3291,0.3292,0.3323,0.3324,0.3324,0,0,0,0,0,0,0,0,0,0,0,0,0,0.3306,0.3318,0.3364,0.3349,0.3348,0.3319,0.3317,0.3316,0.329,0.3291,0.3292,0.3292,0.3323,0.3324,0.3325,0.3317,0,0,0.3327,0.3327,0,0,0,0,0,0,0,0,0.3307,0.3307,0.3351,0.335,0.3349,0.3315,0.3312,0.3322,0.329,0.3307,0.3292,0.3292,0.3331,0.3331,0.3312,0.3318,0.3319,0.3327,0.3327,0.3327,0.3328,0,0,0,0,0,0,0,0.3308,0.3308,0.334,0.3352,0.335,0.3307,0.3307,0.3313,0.3313,0.3305,0.3305,0.3308,0.333,0.3312,0.3313,0.332,0.3327,0.3327,0.3328,0.3328,0.3362,0.3362,0,0,0,0,0,0,0.333,0.331,0.3342,0.3339,0.3335,0.3308,0.3308,0.3321,0.3311,0.3311,0.3307,0.3307,0.331,0.3312,0.3315,0.3392,0.3327,0.3328,0.3328,0.3361,0.3362,0.3362,0,0,0,0,0,0,0.3329,0.3333,0.3344,0.3327,0.3326,0.331,0.3324,0.332,0.3312,0.3313,0.3314,0.3306,0.3311,0.3314,0.3311,0.339,0.3328,0.3329,0.3361,0.3361,0.3362,0.3492,0,0,0,0,0,0,0.3328,0.3333,0.3343,0.3329,0.3328,0.3341,0.3324,0.3319,0.3315,0.3314,0.3312,0.3315,0.3311,0.331,0.3312,0.339,0.333,0.336,0.3361,0.3362,0.3487,0.3497,0.3505,0,0,0,0,0,0.3326,0.3326,0.3344,0.3348,0.3345,0.3342,0.3337,0.3323,0.3315,0.3316,0.3299,0.3315,0.3319,0.331,0.3312,0.3393,0.3359,0.3361,0.3362,0.3483,0.3495,0.3505,0,0,0,0,0,0,0.3291,0.3324,0.3343,0.3349,0.3361,0.334,0.3329,0.3328,0.3312,0.3308,0.3305,0.3306,0.3352,0.3325,0.3316,0.3398,0.3349,0.3351,0.344,0.3452,0.3461,0.3507,0.333,0,0,0,0,0,0.3298,0.3319,0.334,0.3347,0.3352,0.3347,0.3341,0.334,0.3328,0.332,0.3326,0.3327,0.3354,0.3362,0.3374,0.3397,0.34,0.345,0.3459,0.3468,0.3502,0.3544,0.3562,0.3366,0.3366,0.3366,0,0,0.329,0.3307,0.332,0.3344,0.3342,0.3378,0.3342,0.334,0.3386,0.3329,0.3372,0.3366,0.3366,0.3411,0.3429,0.34,0.3521,0.3469,0.3477,0.3508,0.3548,0.3567,0.3585,0.3366,0.3366,0.3366,0,0,0.3293,0.3298,0.3332,0.335,0.3371,0.3378,0.3388,0.3391,0.3405,0.3429,0.3426,0.3456,0.3459,0.3502,0.3518,0.3577,0.3576,0.3573,0.3659,0.37,0.3718,0.3734,0.3756,0.3773,0.357,0.357,0.357,0,0.3286,0.3333,0.3335,0.3375,0.3391,0.3393,0.3432,0.3459,0.3467,0.3479,0.3459,0.3506,0.3524,0.3608,0.3643,0.3614,0.3608,0.3627,0.3718,0.3734,0.3748,0.3766,0.3784,0.3576,0.3576,0.3575,0.3574,0,0.3335,0.3371,0.3378,0.3455,0.347,0.3488,0.3538,0.3558,0.3568,0.3594,0.3656,0.3665,0.3686,0.3718,0.371,0.3826,0.378,0.3737,0.3704,0.3777,0.379,0.3805,0.3586,0.3583,0.3581,0.358,0,0,0.3325,0.3405,0.3412,0.3449,0.3506,0.3519,0.3595,0.3652,0.3691,0.373,0.3789,0.3872,0.3858,0.3876,0.3879,0.3939,0.4055,0.3889,0.3888,0.3937,0.4127,0.3956,0.3956,0.4016,0.402,0.4022,0.4094,0,0.3366,0.3457,0.3483,0.3557,0.3598,0.3614,0.3679,0.373,0.3762,0.3822,0.3876,0.3935,0.3926,0.394,0.4006,0.4046,0.4102,0.4039,0.4027,0.4027,0.3889,0.3971,0.373,0.376,0.4109,0.4111,0.4113,0,0.3409,0.3464,0.3546,0.3602,0.3617,0.3662,0.3717,0.3777,0.3866,0.3887,0.3949,0.3981,0.411,0.4072,0.4196,0.4144,0.416,0.4184,0.4185,0.4,0.3886,0.3741,0.3775,0.3651,0.4137,0.4135,0.4133,0,0.34,0.3492,0.3553,0.3579,0.3659,0.3677,0.3715,0.3786,0.3826,0.3938,0.3969,0.4083,0.4144,0.4205,0.4254,0.423,0.4364,0.4317,0.4181,0.4168,0.395,0.391,0.3886,0.4411,0.441,0.441,0.441,0,0.3422,0.3458,0.355,0.3582,0.363,0.3677,0.3723,0.377,0.3848,0.3907,0.4001,0.4064,0.4182,0.4255,0.4289,0.4277,0.4378,0.4231,0.4188,0.398,0.3945,0.3812,0.3788,0.4413,0.4412,0.4412,0.4411,0,0.3389,0.3457,0.3516,0.3604,0.3625,0.3654,0.3712,0.375,0.3824,0.3906,0.395,0.408,0.4166,0.4243,0.435,0.4291,0.4174,0.4279,0.4019,0.3943,0.3652,0.3643,0.3517,0.3426,0.4144,0.414,0.4137,0,0.3378,0.3417,0.3515,0.3547,0.3579,0.3629,0.3661,0.3732,0.3772,0.3901,0.3944,0.406,0.4101,0.4169,0.4109,0.4101,0.405,0.3866,0.3782,0.3628,0.3591,0.3515,0.3445,0.3553,0.3545,0.3539,0.3534,0,0.3361,0.3398,0.3463,0.3522,0.3562,0.3587,0.3639,0.3663,0.3752,0.3802,0.3868,0.391,0.3943,0.3816,0.3782,0.3745,0.3636,0.3733,0.3654,0.3203,0.3043,0.2933,0.3518,0.3479,0.3484,0.3489,0.3492,0.3494,0.3343,0.3377,0.3463,0.3488,0.3526,0.3519,0.3485,0.3542,0.3557,0.3543,0.3697,0.3627,0.3561,0.3452,0.3411,0.3116,0.3234,0.2985,0.3016,0.2976,0.2792,0.3242,0.3092,0.3095,0.3098,0.31,0.3102,0,0.3315,0.3366,0.3416,0.3433,0.3394,0.3432,0.3439,0.3356,0.3301,0.3317,0.3298,0.3117,0.2939,0.2863,0.2592,0.2436,0.2359,0.2358,0.2224,0.2217,0.2671,0.2543,0.2165,0.2166,0.2166,0.2166,0.2166,0.2166,0.3318,0.3351,0.3361,0.3281,0.3261,0.3126,0.3079,0.2986,0.2942,0.2728,0.2563,0.2546,0.2487,0.2271,0.2016,0.195,0.1856,0.17,0.1817,0.2143,0.2204,0.2263,0.2137,0.168,0.168,0.1218,0.1215,0.1212]},{"header":{"parameterUnit":"m.s-1","parameterCategory":2,"la1":30.2991,"la2":30.254,"lo1":-89.0895,"lo2":-89.0444,"dy":0.0017,"dx":0.0017,"nx":28,"ny":28,"refTime":"2025-09-14T21:00:00:Z","depth":"0","parameterNumber":3,"parameterNumberName":"V-component_of_CURRENTS"},"data":[0,0,0,0,0,0,0,0,0,0,0,0,0,0,0,0,0,0,0,0,0,0,0,0,0,0,0,0,0,0,0,0,0,0,0,0,0,0,0,0,0,0,0,0,0,0,0,0,0,0,0,0,0,0,0,0,0,0,0.0171,0.017,0,0.0079,0.0078,0.0077,0.003,0.003,0.003,0.003,0.0024,0.0024,0.0024,0,0,0,0,0,0,0,0,0,0,0,0,0,0.0241,0.0241,0.0171,0.017,0.0168,0.0079,0.0078,0.0077,0.003,0.003,0.003,0.003,0.0023,0.0024,0.0024,0,0,0,0,0,0,0,0,0,0,0,0,0,0.0188,0.0241,0.0171,0.0133,0.0128,0.0079,0.0078,0.0076,0.003,0.003,0.003,0.0029,0.0023,0.0024,0.0024,0.0031,0,0,0.0024,0.0024,0,0,0,0,0,0,0,0,0.0192,0.0186,0.014,0.0135,0.013,0.0064,0.01,0.0065,0.0031,0.007,0.003,0.0029,0.0044,0.0042,0.0028,0.0031,0.0031,0.0024,0.0024,0.0024,0.0024,0,0,0,0,0,0,0,0.0195,0.019,0.0137,0.0138,0.0132,0.0097,0.009,0.0092,0.0064,0.0067,0.0062,0.0048,0.0042,0.0028,0.0027,0.0031,0.0024,0.0024,0.0024,0.0024,0.0078,0.0079,0,0,0,0,0,0,0.0206,0.0193,0.014,0.0134,0.0158,0.0096,0.0088,0.0087,0.0061,0.0056,0.0049,0.0047,0.0028,0.0027,0.0027,0.0076,0.0024,0.0024,0.0024,0.0076,0.0078,0.0079,0,0,0,0,0,0,0.0208,0.0203,0.0143,0.0159,0.0148,0.0096,0.0094,0.0086,0.007,0.0046,0.0043,0.0043,0.0027,0.0027,0.0031,0.0074,0.0024,0.0024,0.0075,0.0077,0.0079,0.0148,0,0,0,0,0,0,0.0211,0.0204,0.0211,0.016,0.0148,0.0134,0.0094,0.0084,0.0061,0.0057,0.004,0.0039,0.0027,0.0031,0.0031,0.0073,0.0024,0.0073,0.0076,0.0078,0.0144,0.0152,0.0159,0,0,0,0,0,0.0214,0.0226,0.0212,0.0205,0.0158,0.0135,0.0127,0.0088,0.0062,0.007,0.0046,0.0039,0.0048,0.0031,0.0031,0.0075,0.0072,0.0075,0.0078,0.0141,0.0151,0.0159,0,0,0,0,0,0,0.0253,0.022,0.0205,0.0205,0.0181,0.0127,0.0126,0.0092,0.0076,0.0075,0.0045,0.0043,0.0066,0.0057,0.0039,0.0098,0.0064,0.0067,0.0112,0.0121,0.0129,0.0182,0.0024,0,0,0,0,0,0.0267,0.027,0.0232,0.0231,0.0226,0.0177,0.016,0.0135,0.0108,0.0099,0.0081,0.0073,0.0079,0.0087,0.0087,0.0115,0.0125,0.0147,0.0155,0.0161,0.0205,0.0248,0.0265,0.009,0.009,0.0089,0,0,0.0275,0.026,0.0258,0.024,0.0218,0.0218,0.0168,0.0155,0.0159,0.0105,0.0113,0.0095,0.0089,0.0118,0.013,0.0118,0.0209,0.0165,0.0171,0.0212,0.0254,0.0271,0.0286,0.0092,0.0091,0.0091,0,0,0.0297,0.0292,0.0303,0.0294,0.0271,0.0251,0.0251,0.021,0.0205,0.0202,0.0171,0.0186,0.0174,0.0194,0.0199,0.0253,0.0242,0.0244,0.0335,0.0376,0.0392,0.0405,0.041,0.0424,0.0255,0.0256,0.0256,0,0.0308,0.0318,0.0302,0.0311,0.031,0.0271,0.0285,0.0278,0.024,0.0263,0.0221,0.0243,0.0225,0.0292,0.0303,0.0277,0.0279,0.0297,0.0388,0.0402,0.0415,0.0417,0.0431,0.0259,0.0259,0.0258,0.0258,0,0.0336,0.0345,0.0355,0.0362,0.0365,0.0372,0.0363,0.0378,0.036,0.0355,0.0405,0.038,0.0408,0.0396,0.0362,0.0453,0.0415,0.0385,0.0368,0.0438,0.0434,0.0447,0.0265,0.0263,0.0262,0.0261,0,0,0.0355,0.0372,0.0376,0.0394,0.0396,0.0404,0.0444,0.048,0.053,0.0512,0.0587,0.0583,0.0581,0.0588,0.0558,0.0589,0.0651,0.0531,0.0531,0.0541,0.0719,0.0655,0.0663,0.063,0.0634,0.0637,0.0667,0,0.0382,0.0417,0.042,0.0461,0.0482,0.049,0.0537,0.0571,0.0599,0.0666,0.0681,0.0728,0.0651,0.0673,0.0697,0.0677,0.0697,0.0645,0.0647,0.0647,0.0588,0.0682,0.0642,0.0665,0.068,0.0683,0.0684,0,0.041,0.0432,0.0477,0.0531,0.0546,0.057,0.0668,0.0703,0.0797,0.0826,0.0892,0.0898,0.0967,0.0876,0.0908,0.0874,0.0814,0.0779,0.0778,0.0719,0.0612,0.0604,0.0689,0.0592,0.0705,0.0703,0.0702,0,0.0438,0.0478,0.0521,0.0532,0.0585,0.0628,0.0667,0.0755,0.0829,0.0942,0.1018,0.1077,0.1126,0.1095,0.1019,0.0973,0.1034,0.0958,0.0842,0.0834,0.0808,0.0793,0.0815,0.0982,0.0982,0.0982,0.0982,0,0.0468,0.0502,0.0537,0.0558,0.0642,0.0663,0.0778,0.0832,0.095,0.1072,0.1104,0.1214,0.1185,0.1208,0.1105,0.1035,0.1103,0.09,0.0864,0.0824,0.081,0.0728,0.066,0.0983,0.0982,0.0982,0.0982,0,0.0493,0.0508,0.0563,0.0624,0.0651,0.0712,0.0834,0.0937,0.1021,0.119,0.1239,0.1348,0.1385,0.1324,0.1285,0.1151,0.1014,0.1017,0.0954,0.0911,0.0694,0.0631,0.0641,0.0603,0.0918,0.0917,0.0916,0,0.0514,0.0539,0.061,0.0664,0.0693,0.0785,0.0876,0.0967,0.1084,0.1273,0.1374,0.1465,0.1546,0.1467,0.1284,0.1128,0.1007,0.094,0.085,0.0723,0.0627,0.0587,0.0553,0.0825,0.0823,0.0822,0.0821,0,0.0565,0.0582,0.0636,0.0732,0.0819,0.0927,0.1049,0.1141,0.1279,0.1416,0.1587,0.1662,0.1604,0.1466,0.1242,0.1107,0.0865,0.0906,0.0819,0.0616,0.0537,0.0468,0.0732,0.081,0.0811,0.0812,0.0813,0.0813,0.0616,0.0663,0.0732,0.0827,0.0932,0.1061,0.115,0.1292,0.1459,0.1642,0.1706,0.1812,0.1585,0.1302,0.1127,0.076,0.0787,0.0615,0.0565,0.055,0.0483,0.0705,0.0708,0.0709,0.0709,0.0709,0.071,0,0.0688,0.074,0.0832,0.0948,0.1069,0.1103,0.1276,0.1367,0.1546,0.1701,0.1822,0.1734,0.146,0.1161,0.0673,0.0447,0.0386,0.0338,0.0289,0.0281,0.0523,0.0486,0.0387,0.0387,0.0387,0.0387,0.0388,0.0388,0.0736,0.0824,0.0862,0.1047,0.1132,0.127,0.1356,0.1483,0.1604,0.1724,0.1753,0.1774,0.1518,0.0757,0.0274,0.0173,0.0057,0.0016,-0.0012,0.014,0.0162,0.0184,0.0136,-0.0034,-0.0035,-0.0231,-0.0233,-0.0235]}],[{"header":{"parameterUnit":"m.s-1","parameterCategory":2,"la1":30.2991,"la2":30.254,"lo1":-89.0895,"lo2":-89.0444,"dy":0.0017,"dx":0.0017,"nx":28,"ny":28,"refTime":"2025-09-14T21:00:00:Z","depth":"2","parameterNumber":2,"parameterNumberName":"U-component_of_CURRENTS"},"data":[0,0,0,0,0,0,0,0,0,0,0,0,0,0,0,0,0,0,0,0,0,0,0,0,0,0,0,0,0,0,0,0,0,0,0,0,0,0,0,0,0,0,0,0,0,0,0,0,0,0,0,0,0,0,0,0,0,0,0.2154,0.2157,0,0.2277,0.2276,0.2276,0.2283,0.2284,0.2284,0.2285,0.2339,0.234,0.234,0,0,0,0,0,0,0,0,0,0,0,0,0,0.2071,0.2069,0.2154,0.2158,0.2162,0.2277,0.2276,0.2276,0.2282,0.2284,0.2285,0.2286,0.2339,0.234,0.234,0,0,0,0,0,0,0,0,0,0,0,0,0,0.2117,0.2069,0.2153,0.2198,0.2205,0.2277,0.2276,0.2275,0.2282,0.2284,0.2285,0.2286,0.2339,0.234,0.2341,0.2318,0,0,0.2343,0.2343,0,0,0,0,0,0,0,0,0.2114,0.2116,0.2187,0.2195,0.2204,0.2288,0.2269,0.2295,0.2282,0.2226,0.2285,0.2287,0.2332,0.2333,0.2318,0.232,0.2323,0.2343,0.2344,0.2344,0.2344,0,0,0,0,0,0,0,0.2111,0.2113,0.2176,0.2192,0.2202,0.2265,0.2268,0.2273,0.2248,0.2231,0.2238,0.2292,0.2332,0.2317,0.2319,0.2323,0.2343,0.2344,0.2344,0.2345,0.2444,0.2446,0,0,0,0,0,0,0.2137,0.2108,0.2173,0.2183,0.219,0.2266,0.2269,0.2239,0.225,0.2261,0.2291,0.2293,0.2314,0.2318,0.2321,0.2416,0.2344,0.2345,0.2345,0.2442,0.2444,0.2447,0,0,0,0,0,0,0.2133,0.2138,0.2169,0.2175,0.2186,0.2267,0.2233,0.2241,0.2259,0.2301,0.2305,0.2308,0.2316,0.232,0.2344,0.2414,0.2345,0.2346,0.2439,0.2443,0.2446,0.2529,0,0,0,0,0,0,0.2128,0.2133,0.2145,0.2173,0.2188,0.2241,0.2235,0.2243,0.2301,0.2303,0.2317,0.2321,0.2317,0.2343,0.2345,0.2414,0.2347,0.2437,0.2441,0.2445,0.2523,0.2534,0.2544,0,0,0,0,0,0.2123,0.2129,0.2141,0.2155,0.2188,0.2246,0.2255,0.2303,0.2301,0.2316,0.2316,0.2322,0.2372,0.2344,0.2346,0.2417,0.2435,0.244,0.2444,0.2519,0.2532,0.2544,0,0,0,0,0,0,0.211,0.2134,0.2147,0.2161,0.2222,0.2257,0.2288,0.2316,0.2322,0.2326,0.2325,0.2329,0.2384,0.238,0.235,0.2459,0.2415,0.242,0.2471,0.2483,0.2493,0.2513,0.2347,0,0,0,0,0,0.2114,0.2104,0.2163,0.2179,0.2197,0.2239,0.2279,0.2317,0.2336,0.234,0.2356,0.2374,0.2399,0.2423,0.2436,0.2481,0.2489,0.2536,0.2547,0.2555,0.2574,0.265,0.2669,0.2462,0.2462,0.2462,0,0,0.2114,0.2136,0.2132,0.2178,0.22,0.2247,0.2256,0.232,0.2378,0.2346,0.2395,0.2404,0.2414,0.2469,0.2497,0.2481,0.2612,0.2561,0.2569,0.2583,0.2657,0.2677,0.2695,0.2466,0.2465,0.2465,0,0,0.2136,0.2115,0.2133,0.2177,0.2265,0.228,0.2307,0.2361,0.2395,0.2456,0.245,0.2505,0.2531,0.2569,0.2585,0.2662,0.2657,0.267,0.2749,0.2823,0.2841,0.2856,0.2864,0.288,0.2685,0.2686,0.2686,0,0.2154,0.2159,0.2161,0.2214,0.2256,0.2291,0.234,0.2381,0.2455,0.2495,0.2494,0.2577,0.2592,0.2673,0.2702,0.2693,0.2697,0.2699,0.2837,0.2853,0.2868,0.2872,0.2889,0.269,0.269,0.2689,0.2689,0,0.2206,0.2221,0.2228,0.227,0.2321,0.2358,0.243,0.2479,0.2518,0.2585,0.2686,0.271,0.278,0.2793,0.2769,0.2888,0.2841,0.2833,0.2806,0.2894,0.2892,0.2908,0.2697,0.2695,0.2694,0.2693,0,0,0.2183,0.2245,0.2255,0.2281,0.2345,0.2388,0.2461,0.2546,0.2616,0.271,0.2817,0.2881,0.2928,0.295,0.2954,0.3008,0.3108,0.2966,0.2968,0.2972,0.322,0.3028,0.3026,0.3118,0.3122,0.3125,0.3165,0,0.2213,0.2299,0.2328,0.2392,0.2411,0.2456,0.2524,0.2627,0.2699,0.2813,0.2904,0.3003,0.2982,0.3033,0.3097,0.3111,0.3158,0.3095,0.3135,0.3136,0.2955,0.3042,0.2805,0.2808,0.318,0.3183,0.3185,0,0.2237,0.2293,0.2367,0.2425,0.2441,0.2505,0.2594,0.2676,0.2833,0.2906,0.3037,0.3111,0.3243,0.3205,0.3314,0.3269,0.3263,0.3253,0.3255,0.3063,0.2975,0.2786,0.2822,0.3211,0.3209,0.3207,0.3205,0,0.2211,0.2292,0.2343,0.2371,0.2472,0.2527,0.2583,0.2717,0.2798,0.299,0.3078,0.3239,0.3335,0.3389,0.339,0.3375,0.3454,0.3445,0.3257,0.3241,0.3042,0.3,0.352,0.352,0.352,0.352,0.3519,0,0.2202,0.225,0.2342,0.2392,0.2469,0.2539,0.2649,0.2735,0.2882,0.298,0.3146,0.323,0.3386,0.3446,0.3439,0.3381,0.3514,0.3285,0.3258,0.3056,0.3017,0.3372,0.3354,0.3521,0.3521,0.352,0.352,0,0.2194,0.2243,0.2313,0.2428,0.2465,0.254,0.2677,0.2754,0.2889,0.3023,0.3097,0.3272,0.3339,0.3414,0.3481,0.3416,0.3394,0.3324,0.3036,0.2973,0.3121,0.3108,0.3174,0.3168,0.3163,0.3158,0.3155,0,0.22,0.2231,0.235,0.2406,0.2474,0.258,0.2644,0.2762,0.2826,0.2999,0.3048,0.3184,0.3214,0.3237,0.318,0.3141,0.3248,0.2865,0.2808,0.3128,0.3096,0.309,0.3084,0.2575,0.2567,0.2561,0.2555,0,0.2239,0.2282,0.2377,0.2438,0.2513,0.2581,0.267,0.2677,0.2788,0.2878,0.2917,0.2954,0.2985,0.2838,0.2791,0.2734,0.2866,0.2724,0.3189,0.2673,0.256,0.2529,0.2544,0.2497,0.2503,0.2507,0.251,0.2512,0.2299,0.233,0.2413,0.2469,0.2532,0.2517,0.2514,0.2558,0.2575,0.2578,0.2657,0.2604,0.2618,0.2415,0.2316,0.2263,0.2464,0.2366,0.239,0.242,0.2317,0.2199,0.2046,0.2049,0.2052,0.2054,0.2056,0,0.2298,0.2344,0.2417,0.244,0.2413,0.2494,0.2482,0.2389,0.2304,0.2322,0.2298,0.2029,0.1915,0.1959,0.1779,0.1738,0.1766,0.1674,0.1717,0.1775,0.1827,0.1697,0.126,0.1258,0.1256,0.1254,0,0,0.2341,0.2362,0.2352,0.2287,0.2299,0.2219,0.2169,0.2041,0.1985,0.1814,0.1761,0.1809,0.1877,0.1541,0.1487,0.1356,0.1561,0.1294,0.1933,0.2042,0.2091,0.2221,0.2084,0,0,0,0,0]},{"header":{"parameterUnit":"m.s-1","parameterCategory":2,"la1":30.2991,"la2":30.254,"lo1":-89.0895,"lo2":-89.0444,"dy":0.0017,"dx":0.0017,"nx":28,"ny":28,"refTime":"2025-09-14T21:00:00:Z","depth":"2","parameterNumber":3,"parameterNumberName":"V-component_of_CURRENTS"},"data":[0,0,0,0,0,0,0,0,0,0,0,0,0,0,0,0,0,0,0,0,0,0,0,0,0,0,0,0,0,0,0,0,0,0,0,0,0,0,0,0,0,0,0,0,0,0,0,0,0,0,0,0,0,0,0,0,0,0,-0.0005,-0.0006,0,-0.0057,-0.0058,-0.0058,-0.0083,-0.0083,-0.0083,-0.0083,-0.0117,-0.0117,-0.0118,0,0,0,0,0,0,0,0,0,0,0,0,0,0.0016,0.0017,-0.0005,-0.0006,-0.0007,-0.0057,-0.0058,-0.0058,-0.0082,-0.0083,-0.0083,-0.0083,-0.0116,-0.0117,-0.0118,0,0,0,0,0,0,0,0,0,0,0,0,0,-0.0008,0.0017,-0.0005,-0.0026,-0.0029,-0.0057,-0.0058,-0.0058,-0.0082,-0.0083,-0.0083,-0.0083,-0.0116,-0.0117,-0.0118,-0.0121,0,0,-0.0122,-0.0122,0,0,0,0,0,0,0,0,-0.0006,-0.0008,-0.0023,-0.0025,-0.0028,-0.0065,-0.0063,-0.0079,-0.0082,-0.006,-0.0083,-0.0083,-0.0099,-0.0101,-0.0108,-0.0123,-0.0124,-0.0122,-0.0123,-0.0123,-0.0123,0,0,0,0,0,0,0,-0.0005,-0.0007,-0.0024,-0.0023,-0.0027,-0.0053,-0.0056,-0.0066,-0.0076,-0.0062,-0.0065,-0.0073,-0.01,-0.0107,-0.0109,-0.0125,-0.0122,-0.0123,-0.0124,-0.0124,-0.0144,-0.0144,0,0,0,0,0,0,0.0001,-0.0005,-0.0022,-0.0026,-0.002,-0.0053,-0.0056,-0.0052,-0.0076,-0.0081,-0.0073,-0.0074,-0.0105,-0.0108,-0.011,-0.0116,-0.0123,-0.0124,-0.0125,-0.0144,-0.0144,-0.0144,0,0,0,0,0,0,0.0002,0.0001,-0.002,-0.0019,-0.0024,-0.0053,-0.0048,-0.0052,-0.0065,-0.0085,-0.0089,-0.0081,-0.0105,-0.0109,-0.0124,-0.0117,-0.0125,-0.0126,-0.0144,-0.0144,-0.0144,-0.0126,0,0,0,0,0,0,0.0003,0.0002,0.0001,-0.0018,-0.0023,-0.004,-0.0048,-0.0053,-0.007,-0.0072,-0.0093,-0.0096,-0.0106,-0.0122,-0.0125,-0.0119,-0.0127,-0.0145,-0.0144,-0.0144,-0.0126,-0.0125,-0.0123,0,0,0,0,0,0.0005,0.0007,0.0002,-0.0001,-0.0021,-0.004,-0.0045,-0.0066,-0.007,-0.0077,-0.009,-0.0096,-0.0122,-0.0123,-0.0127,-0.012,-0.0145,-0.0144,-0.0144,-0.0127,-0.0125,-0.0123,0,0,0,0,0,0,0.0016,0.0004,-0.0002,-0.0003,-0.0023,-0.0045,-0.0053,-0.0067,-0.0083,-0.0082,-0.0099,-0.0103,-0.011,-0.012,-0.0121,-0.0125,-0.0132,-0.0132,-0.0118,-0.0116,-0.0115,-0.0083,-0.0128,0,0,0,0,0,0.0019,0.0018,-0.0001,-0.0003,-0.0007,-0.003,-0.0042,-0.0056,-0.0072,-0.0079,-0.01,-0.011,-0.011,-0.0118,-0.0126,-0.0133,-0.0119,-0.013,-0.0128,-0.0127,-0.0104,-0.0055,-0.0047,-0.0143,-0.0143,-0.0143,0,0,0.0021,0.0014,0.0013,-0.0001,-0.0012,-0.0013,-0.0036,-0.0051,-0.0052,-0.0079,-0.0091,-0.0107,-0.0111,-0.0116,-0.012,-0.0125,-0.0102,-0.0127,-0.0125,-0.0102,-0.0054,-0.0044,-0.0036,-0.0143,-0.0143,-0.0143,0,0,0.0028,0.0025,0.0026,0.0017,-0.0002,-0.0009,-0.0012,-0.004,-0.005,-0.0072,-0.0078,-0.0085,-0.0114,-0.0103,-0.01,-0.0093,-0.0093,-0.0108,-0.0077,-0.0031,-0.0022,-0.0014,-0.0025,-0.0017,-0.0109,-0.0109,-0.0109,0,0.003,0.0037,0.0021,0.0022,0.0023,-0.0002,0.0006,-0.0007,-0.0042,-0.0036,-0.0074,-0.0077,-0.0097,-0.006,-0.0069,-0.0086,-0.008,-0.0085,-0.0027,-0.0018,-0.001,-0.0022,-0.0014,-0.0108,-0.0109,-0.0109,-0.0109,0,0.004,0.0045,0.0048,0.0052,0.0047,0.0049,0.0036,0.003,0.0009,-0.0005,0.0,-0.003,-0.0022,-0.004,-0.006,-0.001,-0.0034,-0.0027,-0.0027,0.0002,-0.0015,-0.0007,-0.0107,-0.0107,-0.0108,-0.0108,0,0,0.0055,0.0057,0.0058,0.0073,0.0067,0.0071,0.0082,0.0093,0.0129,0.007,0.0113,0.0073,0.0056,0.006,0.0038,0.0058,0.0086,0.0032,0.0034,0.0029,0.015,0.0096,0.0099,0.0106,0.0109,0.0111,0.01,0,0.0072,0.0089,0.0084,0.0112,0.0129,0.0127,0.0149,0.0155,0.0156,0.0188,0.0162,0.0182,0.0097,0.0106,0.0111,0.0121,0.0116,0.0087,0.0118,0.0118,0.0075,0.0111,0.0119,0.0109,0.0108,0.0109,0.011,0,0.0088,0.0101,0.0126,0.0168,0.0178,0.0188,0.0251,0.0262,0.0302,0.0303,0.0312,0.0304,0.0319,0.0249,0.0253,0.0239,0.0189,0.0172,0.0172,0.0132,0.0082,0.0088,0.0123,0.0124,0.0122,0.0122,0.0121,0,0.0114,0.0141,0.0168,0.0176,0.0209,0.023,0.0249,0.0292,0.0337,0.0384,0.0439,0.0434,0.0461,0.0419,0.034,0.0314,0.0346,0.0315,0.0207,0.02,0.0222,0.0213,0.0316,0.0316,0.0316,0.0316,0.0316,0,0.0139,0.0163,0.0182,0.0194,0.0254,0.0257,0.0331,0.0356,0.0427,0.0526,0.0496,0.0583,0.0512,0.0513,0.0409,0.0332,0.0395,0.0228,0.0214,0.0219,0.0212,0.0245,0.0237,0.0315,0.0315,0.0316,0.0316,0,0.0155,0.0163,0.0203,0.0241,0.0261,0.0295,0.0374,0.0457,0.0495,0.0636,0.0662,0.0715,0.0716,0.0614,0.0565,0.0437,0.0361,0.0302,0.0276,0.0259,0.0157,0.015,0.0206,0.0204,0.0203,0.0202,0.0201,0,0.0166,0.0183,0.0233,0.0275,0.0289,0.0347,0.0424,0.0476,0.0585,0.0731,0.0833,0.0863,0.09,0.0766,0.0576,0.0388,0.0359,0.0249,0.0203,0.0175,0.0156,0.015,0.0145,0.0216,0.0215,0.0215,0.0214,0,0.0198,0.0207,0.0246,0.0326,0.0401,0.0498,0.0605,0.07,0.0816,0.0921,0.1073,0.11,0.098,0.0811,0.0534,0.0404,0.0281,0.0228,0.0269,0.0232,0.0182,0.0163,0.0159,0.0209,0.021,0.021,0.021,0.0211,0.0234,0.0271,0.0329,0.0414,0.0515,0.0666,0.0746,0.0891,0.1046,0.1199,0.1218,0.1218,0.1029,0.0667,0.0464,0.0238,0.0246,0.0144,0.0148,0.0152,0.0146,0.0096,0.0102,0.0102,0.0101,0.0101,0.0101,0,0.0301,0.035,0.0427,0.0548,0.0682,0.0706,0.0902,0.0983,0.1166,0.1257,0.1307,0.109,0.0899,0.0678,0.0339,0.0132,0.0128,0.0068,0.0111,0.0117,0.0123,0.0116,0.0063,0.0062,0.0062,0.0061,0,0,0.0347,0.0437,0.0481,0.0696,0.0777,0.0928,0.103,0.1134,0.1205,0.1261,0.1228,0.1173,0.0929,0.0668,0.0421,0.0242,0.0219,0.0201,0.0251,0.0338,0.0345,0.0185,0.0183,0,0,0,0,0]}],[{"header":{"parameterUnit":"m.s-1","parameterCategory":2,"la1":30.2991,"la2":30.254,"lo1":-89.0895,"lo2":-89.0444,"dy":0.0017,"dx":0.0017,"nx":28,"ny":28,"refTime":"2025-09-14T21:00:00:Z","depth":"4","parameterNumber":2,"parameterNumberName":"U-component_of_CURRENTS"},"data":[0,0,0,0,0,0,0,0,0,0,0,0,0,0,0,0,0,0,0,0,0,0,0,0,0,0,0,0,0,0,0,0,0,0,0,0,0,0,0,0,0,0,0,0,0,0,0,0,0,0,0,0,0,0,0,0,0,0,0.0886,0.0887,0,0.0965,0.0966,0.0967,0.1058,0.1059,0.1061,0.1062,0.1078,0.1077,0.1076,0,0,0,0,0,0,0,0,0,0,0,0,0,0.0885,0.0884,0.0886,0.0887,0.0888,0.0965,0.0966,0.0967,0.1058,0.1059,0.1061,0.1063,0.1078,0.1077,0.1076,0,0,0,0,0,0,0,0,0,0,0,0,0,0.0916,0.0883,0.0886,0.0942,0.0948,0.0965,0.0966,0.0967,0.1057,0.1059,0.1061,0.1063,0.1078,0.1077,0.1076,0.1027,0,0,0.1072,0.1071,0,0,0,0,0,0,0,0,0.0914,0.0916,0.0933,0.0939,0.0945,0.1004,0.0972,0.0984,0.1057,0.1016,0.1062,0.1064,0.1045,0.1047,0.1058,0.1027,0.1028,0.1072,0.1071,0.107,0.107,0,0,0,0,0,0,0,0.0912,0.0914,0.0917,0.0934,0.0941,0.0988,0.0995,0.0975,0.1017,0.102,0.1026,0.1035,0.1049,0.1059,0.1059,0.1028,0.1072,0.1071,0.107,0.1069,0.1093,0.1094,0,0,0,0,0,0,0.0896,0.0911,0.0915,0.092,0.0935,0.0986,0.0993,0.0983,0.1019,0.1027,0.1033,0.1039,0.106,0.106,0.106,0.1094,0.107,0.1069,0.1068,0.1092,0.1093,0.1095,0,0,0,0,0,0,0.0895,0.0894,0.0912,0.0919,0.0924,0.0984,0.0972,0.0983,0.1034,0.1029,0.1037,0.1076,0.1062,0.1062,0.1086,0.1092,0.1069,0.1067,0.109,0.1092,0.1094,0.1104,0,0,0,0,0,0,0.0894,0.0893,0.0909,0.0917,0.0923,0.0933,0.097,0.0983,0.1033,0.1043,0.1068,0.107,0.1064,0.1088,0.1085,0.109,0.1066,0.1088,0.1091,0.1093,0.1102,0.1106,0.111,0,0,0,0,0,0.0894,0.0904,0.0908,0.0911,0.0932,0.0933,0.0941,0.0991,0.1034,0.1047,0.1084,0.1071,0.1103,0.1088,0.1084,0.1088,0.1087,0.109,0.1093,0.11,0.1106,0.111,0,0,0,0,0,0,0.0918,0.0914,0.092,0.0931,0.0934,0.0949,0.0975,0.1007,0.1048,0.107,0.108,0.1083,0.1118,0.1102,0.1086,0.1109,0.1095,0.1098,0.1102,0.1107,0.1111,0.1131,0.1065,0,0,0,0,0,0.0923,0.0928,0.0923,0.0932,0.093,0.0957,0.0978,0.1003,0.1027,0.1052,0.1066,0.109,0.1118,0.1115,0.1131,0.112,0.1154,0.1127,0.1131,0.1134,0.1151,0.124,0.1254,0.1105,0.1105,0.1105,0,0,0.0934,0.0935,0.0939,0.0938,0.0945,0.0935,0.0975,0.0998,0.1014,0.1039,0.1074,0.111,0.1128,0.1142,0.1152,0.1128,0.1188,0.1138,0.114,0.1156,0.1245,0.126,0.1273,0.1107,0.1107,0.1107,0,0,0.0933,0.095,0.0941,0.0932,0.094,0.0954,0.0964,0.0981,0.1019,0.1041,0.1089,0.1135,0.1139,0.1165,0.1177,0.1208,0.1226,0.1212,0.1219,0.1306,0.1319,0.1331,0.1365,0.138,0.119,0.1191,0.1191,0,0.0954,0.0924,0.0943,0.0917,0.092,0.0958,0.0944,0.0973,0.1007,0.1035,0.1054,0.1153,0.1152,0.1212,0.1224,0.1215,0.1262,0.1193,0.1312,0.1324,0.1337,0.1369,0.1385,0.1191,0.1191,0.1191,0.1191,0,0.0909,0.0902,0.0893,0.0871,0.0886,0.0877,0.0902,0.0948,0.1001,0.1017,0.1109,0.1154,0.1217,0.122,0.1222,0.1311,0.1315,0.1324,0.1297,0.1352,0.1382,0.1399,0.1193,0.1192,0.1192,0.1192,0,0,0.0909,0.0871,0.087,0.0858,0.086,0.0868,0.091,0.0945,0.1011,0.1048,0.1122,0.1181,0.1237,0.1261,0.13,0.1356,0.1453,0.1372,0.1376,0.14,0.163,0.146,0.1462,0.1501,0.1505,0.1508,0.1605,0,0.0868,0.0813,0.082,0.0802,0.0776,0.0837,0.0885,0.0936,0.1003,0.1076,0.1146,0.122,0.1242,0.1304,0.137,0.1458,0.1506,0.1425,0.1578,0.1581,0.1421,0.1479,0.152,0.1617,0.1621,0.1624,0.1626,0,0.0813,0.0788,0.0744,0.0782,0.0786,0.0803,0.0923,0.0966,0.1067,0.1134,0.1229,0.1278,0.1381,0.1393,0.1577,0.1538,0.1585,0.1634,0.164,0.1495,0.1444,0.156,0.1657,0.1655,0.1653,0.1651,0.1649,0,0.0776,0.0754,0.0728,0.0716,0.0752,0.0803,0.0863,0.0976,0.106,0.1171,0.125,0.1369,0.1456,0.1573,0.165,0.1642,0.183,0.1823,0.1711,0.1698,0.1817,0.1804,0.1944,0.1943,0.1943,0.1943,0.1943,0,0.0709,0.0698,0.0715,0.068,0.0739,0.0784,0.0891,0.0983,0.1125,0.1205,0.1284,0.1382,0.1516,0.1612,0.1684,0.1743,0.1864,0.1728,0.1725,0.1813,0.1798,0.1827,0.1812,0.1947,0.1946,0.1945,0.1944,0,0.0643,0.0642,0.0622,0.0663,0.0702,0.0745,0.0907,0.0994,0.1138,0.1261,0.1297,0.1422,0.1531,0.1631,0.1785,0.1765,0.1843,0.1821,0.1882,0.1878,0.1643,0.1628,0.1725,0.172,0.1716,0.1713,0.171,0,0.0594,0.056,0.0594,0.0629,0.0648,0.074,0.0827,0.0988,0.1068,0.1274,0.1306,0.1429,0.1494,0.1595,0.1683,0.178,0.1763,0.1775,0.173,0.164,0.1629,0.162,0.1611,0.1703,0.1702,0.1701,0.17,0,0.0499,0.0513,0.0492,0.0562,0.0639,0.0727,0.0837,0.0907,0.1083,0.1213,0.131,0.1362,0.1444,0.1511,0.1568,0.164,0.1762,0.1731,0.1741,0.1699,0.1615,0.1605,0.1601,0.1686,0.1688,0.1689,0.169,0,0.0442,0.0433,0.0436,0.0506,0.0596,0.0687,0.0763,0.0864,0.0976,0.1185,0.1195,0.1334,0.1425,0.1437,0.1508,0.1538,0.1529,0.15,0.1521,0.1538,0.1425,0.1288,0.1269,0,0,0,0,0,0.0399,0.039,0.0413,0.0479,0.0557,0.0631,0.0761,0.0838,0.099,0.1036,0.1131,0.12,0.1281,0.1326,0.1325,0.1407,0.1522,0.1394,0.1496,0.1606,0.1622,0.1503,0,0,0,0,0,0,0.0382,0.0367,0.0375,0.0436,0.0491,0.0592,0.068,0.0784,0.0811,0.0961,0.1006,0.1111,0.1194,0.1277,0.1295,0.1313,0.135,0.1472,0.1469,0.1596,0.1611,0.1625,0.1508,0,0,0,0,0]},{"header":{"parameterUnit":"m.s-1","parameterCategory":2,"la1":30.2991,"la2":30.254,"lo1":-89.0895,"lo2":-89.0444,"dy":0.0017,"dx":0.0017,"nx":28,"ny":28,"refTime":"2025-09-14T21:00:00:Z","depth":"4","parameterNumber":3,"parameterNumberName":"V-component_of_CURRENTS"},"data":[0,0,0,0,0,0,0,0,0,0,0,0,0,0,0,0,0,0,0,0,0,0,0,0,0,0,0,0,0,0,0,0,0,0,0,0,0,0,0,0,0,0,0,0,0,0,0,0,0,0,0,0,0,0,0,0,0,0,0.0101,0.0101,0,0.008,0.0079,0.0079,0.0051,0.0051,0.005,0.005,0.0051,0.0051,0.0051,0,0,0,0,0,0,0,0,0,0,0,0,0,0.0082,0.0082,0.0101,0.0101,0.0101,0.008,0.0079,0.0079,0.0051,0.0051,0.005,0.005,0.005,0.0051,0.0051,0,0,0,0,0,0,0,0,0,0,0,0,0,0.0078,0.0083,0.0101,0.0084,0.0082,0.008,0.0079,0.0079,0.0052,0.0051,0.005,0.005,0.005,0.0051,0.0052,0.007,0,0,0.0054,0.0054,0,0,0,0,0,0,0,0,0.0079,0.0079,0.0087,0.0085,0.0083,0.0067,0.0072,0.0077,0.0052,0.0064,0.005,0.0049,0.0059,0.0059,0.0056,0.007,0.007,0.0054,0.0054,0.0054,0.0055,0,0,0,0,0,0,0,0.0079,0.008,0.0093,0.0087,0.0085,0.0065,0.0064,0.0073,0.0066,0.0062,0.006,0.0058,0.0058,0.0055,0.0056,0.007,0.0054,0.0054,0.0055,0.0055,0.0064,0.0063,0,0,0,0,0,0,0.0084,0.008,0.0094,0.0092,0.0079,0.0066,0.0065,0.0073,0.0065,0.0063,0.0058,0.0057,0.0055,0.0055,0.0056,0.0064,0.0054,0.0055,0.0055,0.0064,0.0063,0.0063,0,0,0,0,0,0,0.0084,0.0086,0.0094,0.0085,0.0084,0.0067,0.0077,0.0073,0.0065,0.0062,0.006,0.0053,0.0054,0.0055,0.0055,0.0064,0.0055,0.0056,0.0064,0.0064,0.0063,0.0088,0,0,0,0,0,0,0.0084,0.0086,0.0089,0.0086,0.0085,0.0096,0.0077,0.0073,0.0065,0.0062,0.0057,0.0056,0.0054,0.0054,0.0056,0.0065,0.0056,0.0064,0.0064,0.0063,0.0087,0.0088,0.0089,0,0,0,0,0,0.0083,0.009,0.009,0.0091,0.0092,0.0097,0.0095,0.008,0.0065,0.0068,0.0056,0.0056,0.0053,0.0055,0.0057,0.0066,0.0064,0.0064,0.0064,0.0087,0.0088,0.0089,0,0,0,0,0,0,0.0082,0.0088,0.0087,0.0096,0.0098,0.0092,0.0091,0.008,0.0072,0.0069,0.0058,0.0058,0.0055,0.0057,0.0059,0.0065,0.0057,0.0057,0.0074,0.0076,0.0077,0.0084,0.0057,0,0,0,0,0,0.0086,0.0093,0.0097,0.0103,0.0108,0.01,0.0096,0.0091,0.0085,0.008,0.0074,0.0066,0.0057,0.0063,0.0056,0.0071,0.0052,0.0075,0.0076,0.0077,0.0083,0.0048,0.0047,0.0062,0.0062,0.0062,0,0,0.0088,0.009,0.0095,0.0103,0.0105,0.0122,0.0096,0.01,0.0109,0.0084,0.0089,0.0068,0.0057,0.0062,0.0063,0.0067,0.0063,0.0077,0.0078,0.0083,0.0048,0.0046,0.0045,0.0062,0.0062,0.0062,0,0,0.01,0.0102,0.0115,0.0125,0.0131,0.0131,0.0133,0.0132,0.0124,0.0131,0.0101,0.0082,0.009,0.0073,0.0068,0.0073,0.006,0.0074,0.0101,0.0068,0.0066,0.0065,0.0039,0.0035,0.0087,0.0087,0.0087,0,0.0103,0.0128,0.0119,0.014,0.0153,0.0139,0.0166,0.0159,0.0154,0.0144,0.0138,0.0106,0.0094,0.0083,0.0082,0.0077,0.0059,0.0099,0.007,0.0068,0.0066,0.004,0.0035,0.0088,0.0088,0.0088,0.0088,0,0.0132,0.0155,0.0166,0.0193,0.0201,0.0224,0.0223,0.0222,0.0211,0.0193,0.0172,0.0146,0.0128,0.0117,0.0107,0.0087,0.0079,0.0065,0.0068,0.0066,0.0039,0.0033,0.009,0.0089,0.0089,0.0089,0,0,0.0138,0.0181,0.0186,0.0216,0.0237,0.0251,0.0264,0.0266,0.0266,0.0242,0.0228,0.0201,0.0169,0.016,0.0133,0.0108,0.0075,0.0091,0.0089,0.007,0.0007,0.0014,0.0009,0.0058,0.0057,0.0057,-0.0006,0,0.017,0.0228,0.0235,0.0291,0.0327,0.0324,0.0339,0.033,0.0313,0.0291,0.0238,0.0216,0.0191,0.0182,0.015,0.0088,0.0062,0.0093,0.0009,0.0007,0.0017,0.0004,0.0054,-0.001,-0.0011,-0.0012,-0.0013,0,0.0202,0.0239,0.0306,0.0356,0.037,0.0396,0.0416,0.0426,0.0382,0.0363,0.032,0.0269,0.0218,0.0197,0.0107,0.0129,0.0076,0.0029,0.0025,0.0021,0.0004,-0.0008,-0.0022,-0.0022,-0.0021,-0.002,-0.002,0,0.0224,0.0288,0.0346,0.0368,0.0418,0.044,0.0459,0.0444,0.0456,0.04,0.0392,0.0311,0.0277,0.0198,0.0104,0.0105,-0.0002,-0.0016,-0.0062,-0.0062,-0.0059,-0.0057,-0.0082,-0.0082,-0.0081,-0.0081,-0.0081,0,0.0263,0.031,0.0366,0.0402,0.0465,0.0478,0.0529,0.0522,0.0515,0.0514,0.0433,0.0406,0.0276,0.0195,0.011,0.0013,0.0003,-0.0059,-0.0079,-0.0048,-0.0044,-0.0063,-0.006,-0.0084,-0.0083,-0.0083,-0.0082,0,0.0284,0.0324,0.0396,0.046,0.0484,0.0528,0.0594,0.0616,0.0606,0.0602,0.0585,0.0475,0.0363,0.0242,0.0096,0.003,-0.0072,-0.0104,-0.0056,-0.0072,-0.0111,-0.0106,-0.0162,-0.0162,-0.0162,-0.0162,-0.0163,0,0.03,0.0342,0.0437,0.0482,0.0519,0.0589,0.0632,0.0658,0.067,0.064,0.0619,0.0516,0.0429,0.0237,0.01,-0.0059,-0.0081,-0.0131,-0.0127,-0.0106,-0.012,-0.0114,-0.0109,-0.0163,-0.0163,-0.0163,-0.0163,0,0.0327,0.0364,0.0418,0.0516,0.058,0.0654,0.0705,0.0727,0.0733,0.0732,0.0652,0.0539,0.0405,0.0233,0.0113,-0.0005,-0.0099,-0.0134,-0.0134,-0.0132,-0.0109,-0.0121,-0.0115,-0.0164,-0.0164,-0.0164,-0.0164,0,0.0335,0.0375,0.0449,0.0533,0.0618,0.068,0.0718,0.0729,0.0752,0.0713,0.0679,0.0539,0.0448,0.026,0.0144,0.0034,0.0003,-0.0032,-0.0038,-0.0038,0.0014,0.0063,0.0043,0,0,0,0,0,0.0345,0.0387,0.0459,0.0548,0.0632,0.0679,0.0742,0.0764,0.0772,0.0729,0.0713,0.0589,0.04,0.0296,0.0189,0.013,-0.0022,-0.0,-0.0065,-0.0169,-0.0168,-0.0127,0,0,0,0,0,0,0.0349,0.0415,0.0452,0.0546,0.0599,0.0684,0.0726,0.0732,0.0705,0.0695,0.0591,0.0556,0.0365,0.046,0.0181,0.0145,0.0089,-0.0087,-0.009,-0.017,-0.0169,-0.0168,-0.0125,0,0,0,0,0]}]]